Wenatchee, WA

9:47 AM PDT on April 28, 2017 (GMT -0700)
Pangborn Memorial

Weather History for KEAT - June, 2012

Change the Weather History Date:

Tuesday, June 26, 2012

  Actual Average Record
Temperature  
Mean Temperature 53 °F 62 °F  
Max Temperature 59 °F 76 °F 100 °F (2006)
Min Temperature 47 °F 48 °F 37 °F (2007)
Degree Days  
Heating Degree Days 12 5  
Month to date heating degree days 228 170  
Since 1 June heating degree days 228 170  
Since 1 July heating degree days 7111 7121  
Cooling Degree Days 0 1  
Month to date cooling degree days 5 9  
Year to date cooling degree days 5 14  
Since 1 June cooling degree days 5 9  
Growing Degree Days 7 (Base 50)    
Moisture  
Dew Point 44 °F    
Average Humidity 64    
Maximum Humidity 80    
Minimum Humidity 49    
Precipitation  
Precipitation 0.77 in 0.03 in 0.97 in (2014)
Month to date precipitation 3.47 1.25  
Year to date precipitation 13.58 9.28  
Snow  
Snow 0.00 in 0.00 in - ()
Month to date snowfall 0.0 0.0  
Since 1 June snowfall 0.0 0.0  
Since 1 July snowfall 36.3 54.1  
Snow Depth 0.00 in    
Sea Level Pressure  
Sea Level Pressure 29.88 in    
Wind  
Wind Speed 9 mph (NW)    
Max Wind Speed 15 mph    
Max Gust Speed -    
Visibility 10 miles    
Events Rain    
T = Trace of Precipitation, MM = Missing Value Source: NWS Daily Summary

Daily Weather History Graph

Daily Weather History Graph

Search for Another Location

Airport or City:

Trip Planner

Search our weather history database for the weather conditions in past years. The results will help you decide how hot, cold, wet, or windy it might be!

Date:

Astronomy

Jun. 26, 2012 Rise Set
Actual Time 5:05 AM PDT 9:01 PM PDT
Civil Twilight 4:25 AM PDT 9:42 PM PDT
Nautical Twilight 3:29 AM PDT 10:37 PM PDT
Astronomical Twilight 2:03 AM PDT 12:03 AM PDT
Moon 1:00 PM PDT (6/26) 12:02 AM PDT (6/26)
Length of Visible Light 17h 16m
Length of Day
15h 56m
Waxing Crescent, 46% of the Moon is Illuminated
Jun 26
Waxing Crescent
Jun 26
First Quarter
Jul 3
Full
Jul 10
Last Quarter
Jul 18
New

Hourly Weather History & Observations

Time (PDT) Temp. Dew Point Humidity Pressure Visibility Wind Dir Wind Speed Gust Speed Precip Events Conditions
1:55 AM 57.0 °F 43.0 °F 59% 29.82 in 10.0 mi North 6.9 mph - N/A   Overcast
2:55 AM 55.9 °F 45.0 °F 67% 29.80 in 10.0 mi NW 6.9 mph - 0.00 in   Overcast
3:55 AM 55.9 °F 43.0 °F 62% 29.78 in 10.0 mi NW 9.2 mph - N/A   Overcast
4:55 AM 55.9 °F 44.1 °F 64% 29.78 in 10.0 mi NNW 5.8 mph - 0.00 in Rain Light Rain
5:55 AM 55.9 °F 44.1 °F 64% 29.78 in 10.0 mi WNW 8.1 mph - 0.00 in   Overcast
6:55 AM 55.0 °F 46.0 °F 72% 29.79 in 10.0 mi West 5.8 mph - 0.00 in Rain Light Rain
7:55 AM 54.0 °F 46.9 °F 77% 29.80 in 10.0 mi NW 5.8 mph - 0.00 in Rain Light Rain
8:55 AM 54.0 °F 48.0 °F 80% 29.82 in 10.0 mi NW 8.1 mph - 0.00 in Rain Light Rain
9:55 AM 55.0 °F 46.9 °F 74% 29.83 in 10.0 mi NW 13.8 mph - 0.00 in Rain Light Rain
10:55 AM 55.0 °F 46.9 °F 74% 29.86 in 10.0 mi NNW 11.5 mph - 0.00 in Rain Light Rain
11:55 AM 55.0 °F 48.0 °F 77% 29.88 in 10.0 mi NW 10.4 mph - 0.00 in Rain Light Rain
12:55 PM 55.9 °F 46.9 °F 72% 29.89 in 10.0 mi NW 11.5 mph - 0.00 in Rain Light Rain
1:55 PM 55.9 °F 45.0 °F 67% 29.91 in 10.0 mi West 11.5 mph - 0.00 in Rain Light Rain
2:55 PM 57.0 °F 45.0 °F 64% 29.92 in 10.0 mi WNW 10.4 mph - 0.00 in Rain Light Rain
3:55 PM 57.0 °F 44.1 °F 62% 29.93 in 10.0 mi NW 11.5 mph - 0.00 in   Overcast
4:55 PM 59.0 °F 42.1 °F 53% 29.93 in 10.0 mi NW 12.7 mph - N/A   Overcast
5:55 PM 60.1 °F 41.0 °F 49% 29.93 in 10.0 mi NW 15.0 mph - N/A   Mostly Cloudy
6:55 PM 59.0 °F 41.0 °F 51% 29.93 in 10.0 mi NW 11.5 mph - N/A   Mostly Cloudy
7:55 PM 59.0 °F 39.9 °F 49% 29.94 in 10.0 mi NW 11.5 mph - N/A   Clear
8:55 PM 57.0 °F 41.0 °F 55% 29.96 in 10.0 mi NW 10.4 mph - N/A   Clear
9:55 PM 55.9 °F 41.0 °F 57% 29.98 in 10.0 mi NW 9.2 mph - N/A   Clear
10:55 PM 55.9 °F 39.9 °F 55% 29.98 in 10.0 mi NNW 9.2 mph - N/A   Partly Cloudy
11:55 PM 55.0 °F 39.9 °F 57% 29.99 in 10.0 mi NW 12.7 mph - N/A   Clear